Location: Arbon
(43.0005°N, 0.7472°E)
Time: 11:54:43
(UTC+00:00)

OAO 2 Rocket - Pass Details

Date: 22 April 2026
Orbit: 668 x 734 km, 35.0° (Epoch: 15 May)

Event Time Altitude Azimuth Distance (km) Brightness Sun altitude
Rises 20:26:34 0° 256° (WSW) 3,119 7.3 -16.9°
Reaches altitude 10° 20:29:12 10° 247° (WSW) 2,188 6.3 -17.3°
Maximum altitude 20:33:46 33° 184° (S) 1,174 4.2 -18.0°
Enters shadow 20:34:51 30° 159° (SSE) 1,249 4.1 -18.1°
